Temp
15 15 16 16 16 16 18 18 18 19 19 19 19 20 20 21 21 22 23 23 22 22 22 23 23 23 24 24 23 23 17 18 22 23 24 21 21 21 20 21 21 20 21 21 20
15 15 16 16 16 16 18 17 18 18 19 19 19 19 20 22 22 23 23 23 22 22 22 23 23 23 24 24 23 20 17 20 21 23 23 21 22 21 21 21 21 20 20 21 21
14 15 15 16 16 17 17 18 18 19 19 19 19 19 20 22 22 23 23 23 23 23 23 23 23 23 23 23 23 20 20 21 24 25 24 20 21 21 20 20 22 20 19 21 21
14 15 15 16 17 17 17 17 18 19 19 19 19 20 21 21 21 23 23 23 23 24 24 24 23 23 21 22 23 23 23 23 25 25 23 20 21 21 21 23 24 23 21 21 20
15 15 15 16 16 17 17 18 18 18 19 19 20 20 21 22 23 23 23 23 23 24 24 24 24 23 21 22 23 22 23 24 25 26 24 23 21 21 21 24 24 24 22 20 20
14 15 15 16 16 17 17 18 18 19 19 19 19 20 20 20 23 23 23 23 24 24 24 24 24 24 23 22 22 24 23 24 25 25 24 22 20 22 21 22 23 24 24 20 19
14 15 15 16 17 17 18 18 19 19 19 19 19 19 20 23 23 23 23 23 24 24 24 24 24 24 24 23 24 23 24 23 22 24 23 24 23 20 20 21 23 24 22 19 19
14 15 15 16 17 17 18 19 20 20 20 19 19 20 22 23 23 23 24 24 24 24 24 24 24 24 24 23 22 22 20 22 23 23 22 22 23 18 19 19 21 23 23 21 21
14 15 15 16 17 18 19 19 20 20 20 19 19 19 22 23 23 23 24 24 24 24 24 24 24 24 23 20 19 18 22 23 23 21 23 22 22 18 18 18 20 21 22 22 22
14 15 16 16 17 18 19 20 20 19 20 18 19 19 22 23 23 24 24 24 24 24 24 24 23 19 16 18 20 23 23 23 23 22 19 18 17 18 18 18 19 20 22 21 22
14 15 15 17 17 18 19 20 19 19 19 19 21 21 22 23 23 24 24 24 24 24 21 22 20 19 21 20 20 21 22 22 22 22 19 17 17 17 18 18 19 20 21 21 22
14 15 15 17 17 18 18 18 17 16 15 21 21 21 22 22 23 24 24 24 23 21 21 19 19 21 20 20 20 20 20 19 22 22 18 18 18 17 18 18 19 20 21 22 22
14 14 15 17 18 18 18 18 17 17 15 20 21 22 23 23 24 24 24 24 22 21 21 20 22 22 22 22 23 22 21 21 21 20 19 18 18 18 18 18 20 20 20 20 21
14 14 15 17 17 18 18 18 18 18 15 18 20 23 24 24 24 25 24 24 22 22 21 20 22 23 22 24 23 25 23 23 21 21 19 20 18 16 16 16 17 20 20 22 22
14 14 15 15 16 17 18 19 19 19 16 21 21 23 24 24 24 24 25 24 22 23 23 22 23 23 24 25 23 25 24 22 21 19 20 20 19 18 16 16 16 17 19 22 21
14 14 15 15 17 17 18 19 19 17 17 21 23 22 22 23 24 23 24 25 24 23 22 21 24 25 24 24 25 21 21 18 16 16 19 20 19 19 15 17 17 18 19 20 22
14 14 15 16 17 18 18 19 17 16 19 21 22 21 22 22 23 23 22 22 20 21 21 21 24 24 26 24 24 21 18 17 19 18 19 19 19 19 20 18 19 19 20 20 21
14 15 16 17 18 18 18 17 17 19 18 20 22 21 21 22 23 22 20 20 21 21 19 21 22 26 26 25 23 21 20 17 20 18 19 18 20 21 19 20 20 21 20 20 20
14 15 17 16 18 18 17 15 16 18 19 19 20 21 21 22 23 22 20 19 20 20 21 20 23 24 25 25 24 22 19 18 16 16 18 17 20 21 19 19 19 20 21 20 21
13 15 16 16 17 17 15 14 17 18 19 20 19 20 21 22 21 21 21 21 21 20 22 22 23 24 25 24 22 23 19 20 15 19 20 18 19 19 21 19 18 18 20 21 22
13 14 14 15 15 16 14 14 17 19 20 19 19 20 21 22 20 19 22 22 21 20 22 21 21 24 24 23 22 21 19 15 14 15 16 17 18 17 20 19 19 20 21 22 22
12 10 15 15 14 11 14 15 19 19 20 19 19 18 20 22 21 19 20 22 22 21 21 21 19 20 23 20 21 22 20 17 16 19 13 15 18 19 19 18 19 22 24 23 22
11 12 15 15 12 12 15 17 18 18 18 19 20 20 21 21 21 21 21 22 22 20 21 19 18 18 19 21 22 21 20 15 14 13 15 17 17 18 18 18 20 21 24 26 25
10 7 13 14 13 14 14 16 17 19 18 19 19 20 20 20 19 21 22 22 21 20 21 20 15 18 19 19 19 20 21 18 16 15 15 15 18 19 17 15 17 20 21 23 23
9 8 9 8 11 11 12 14 16 16 18 19 19 19 20 20 20 20 20 22 21 20 18 18 18 18 17 20 21 21 20 20 21 18 18 19 18 18 17 14 16 17 18 20 20
9 8 9 9 9 10 10 13 15 14 15 18 18 18 19 19 20 20 19 20 21 19 18 16 17 18 17 19 20 21 19 19 20 18 19 19 18 16 15 16 15 15 16 17 17
8 8 8 9 8 10 11 12 14 13 15 16 17 17 18 19 19 19 19 18 17 19 16 16 15 16 17 18 19 19 20 19 18 17 19 19 17 15 14 14 14 15 16 16 17
Height
1538 1536 1534 1532 1530 1525 1522 1521 1517 1513 1511 1508 1505 1502 1500 1500 1500 1499 1498 1500 1502 1503 1504 1506 1507 1508 1509 1509 1511 1512 1527 1534 1522 1518 1516 1515 1517 1519 1520 1519 1520 1518 1518 1521 1521
1537 1536 1533 1531 1528 1524 1522 1520 1516 1513 1510 1507 1504 1501 1498 1498 1498 1497 1499 1499 1501 1502 1504 1506 1508 1508 1509 1509 1511 1512 1529 1524 1513 1510 1512 1512 1513 1519 1520 1519 1519 1517 1519 1521 1522
1537 1535 1532 1529 1526 1523 1520 1518 1515 1511 1509 1506 1503 1500 1498 1498 1499 1498 1498 1499 1500 1502 1504 1507 1508 1508 1508 1510 1511 1512 1519 1511 1509 1507 1508 1512 1515 1518 1519 1522 1513 1517 1520 1521 1521
1537 1532 1530 1527 1524 1522 1520 1516 1513 1510 1508 1505 1502 1499 1498 1499 1503 1498 1497 1499 1500 1502 1505 1507 1508 1508 1509 1510 1511 1513 1507 1508 1509 1507 1509 1514 1517 1519 1519 1515 1516 1516 1519 1521 1524
1535 1533 1529 1527 1523 1521 1518 1515 1512 1509 1507 1505 1501 1499 1498 1499 1498 1497 1497 1498 1500 1503 1505 1506 1507 1507 1510 1510 1510 1511 1506 1506 1509 1508 1509 1511 1514 1518 1519 1515 1515 1516 1518 1523 1526
1534 1532 1528 1525 1522 1519 1516 1512 1510 1508 1506 1503 1501 1499 1498 1500 1496 1496 1497 1498 1500 1503 1505 1506 1507 1507 1508 1509 1510 1508 1506 1507 1508 1506 1508 1511 1517 1518 1518 1516 1516 1518 1518 1527 1529
1533 1530 1525 1523 1520 1516 1514 1511 1508 1506 1503 1502 1500 1498 1498 1497 1496 1496 1496 1497 1501 1503 1504 1505 1506 1508 1507 1508 1507 1507 1507 1507 1509 1508 1510 1511 1517 1519 1516 1517 1517 1519 1524 1529 1529
1532 1529 1525 1523 1519 1515 1512 1507 1505 1503 1502 1500 1498 1498 1495 1494 1495 1496 1496 1498 1501 1503 1504 1505 1505 1506 1507 1508 1507 1510 1512 1521 1507 1506 1512 1515 1524 1520 1518 1519 1520 1520 1523 1527 1529
1531 1528 1524 1521 1517 1513 1509 1505 1502 1501 1499 1498 1497 1497 1494 1493 1494 1496 1497 1498 1501 1502 1503 1504 1505 1505 1507 1511 1520 1519 1526 1520 1516 1509 1510 1512 1522 1522 1523 1523 1523 1522 1525 1527 1529
1530 1526 1521 1518 1515 1511 1506 1503 1502 1499 1499 1497 1496 1499 1494 1493 1493 1495 1496 1498 1500 1501 1502 1503 1505 1508 1513 1517 1536 1522 1523 1521 1523 1513 1515 1521 1527 1525 1526 1526 1525 1525 1524 1527 1527
1528 1524 1519 1516 1513 1509 1507 1502 1506 1501 1498 1497 1495 1493 1491 1492 1491 1494 1495 1497 1499 1501 1505 1504 1511 1518 1509 1511 1513 1515 1519 1523 1519 1515 1520 1528 1529 1528 1527 1528 1527 1527 1525 1525 1527
1526 1523 1518 1515 1513 1509 1509 1506 1509 1511 1499 1491 1490 1489 1489 1490 1491 1492 1495 1498 1499 1505 1504 1511 1514 1504 1505 1508 1512 1516 1520 1528 1519 1516 1523 1531 1533 1529 1528 1529 1526 1527 1525 1523 1525
1524 1521 1516 1513 1511 1509 1507 1509 1507 1504 1502 1486 1484 1485 1486 1488 1488 1490 1494 1495 1497 1503 1504 1511 1502 1499 1501 1504 1505 1508 1515 1517 1520 1522 1528 1530 1540 1536 1530 1529 1525 1525 1523 1521 1520
1522 1518 1513 1510 1512 1509 1509 1508 1505 1502 1507 1490 1482 1481 1483 1485 1486 1488 1491 1495 1496 1500 1501 1504 1496 1496 1501 1500 1501 1507 1499 1507 1515 1525 1546 1529 1560 1544 1536 1532 1529 1526 1522 1519 1520
1521 1518 1515 1513 1511 1510 1510 1506 1504 1503 1529 1483 1480 1478 1479 1483 1485 1486 1489 1493 1495 1495 1498 1502 1495 1496 1499 1495 1495 1503 1498 1507 1514 1527 1532 1535 1548 1538 1537 1537 1530 1525 1523 1520 1520
1520 1517 1513 1511 1509 1509 1506 1505 1504 1517 1523 1485 1478 1478 1481 1481 1483 1486 1488 1492 1492 1494 1495 1495 1490 1490 1491 1491 1492 1499 1506 1518 1527 1537 1550 1535 1542 1536 1541 1526 1525 1523 1522 1521 1520
1517 1514 1510 1508 1507 1505 1504 1505 1515 1522 1488 1488 1483 1479 1481 1484 1484 1485 1490 1494 1501 1508 1508 1496 1490 1486 1486 1495 1495 1501 1521 1553 1552 1559 1556 1538 1542 1528 1514 1511 1510 1512 1515 1519 1521
1513 1510 1507 1504 1502 1502 1504 1506 1520 1500 1497 1486 1483 1481 1485 1482 1484 1486 1492 1499 1494 1497 1510 1513 1514 1488 1486 1489 1500 1506 1514 1546 1555 1565 1553 1537 1542 1525 1511 1508 1512 1513 1516 1519 1521
1510 1507 1502 1499 1498 1500 1505 1515 1510 1502 1496 1491 1483 1484 1485 1481 1483 1486 1492 1496 1492 1492 1509 1514 1505 1486 1486 1487 1491 1505 1522 1517 1545 1552 1554 1549 1531 1515 1512 1512 1515 1516 1517 1516 1518
1509 1503 1499 1497 1496 1499 1505 1509 1502 1497 1494 1491 1497 1488 1489 1484 1487 1487 1491 1482 1486 1485 1487 1496 1507 1489 1487 1487 1491 1494 1507 1526 1541 1555 1554 1552 1543 1537 1516 1515 1514 1514 1511 1512 1515
1509 1504 1500 1497 1499 1501 1508 1505 1498 1495 1494 1495 1494 1493 1485 1482 1485 1490 1486 1480 1478 1484 1486 1492 1501 1498 1491 1497 1502 1506 1514 1528 1537 1547 1561 1564 1548 1519 1513 1509 1512 1510 1510 1510 1510
1509 1507 1501 1501 1502 1502 1504 1499 1494 1493 1494 1494 1491 1489 1485 1479 1483 1488 1488 1479 1475 1478 1490 1488 1501 1511 1502 1497 1494 1496 1509 1519 1539 1540 1554 1554 1544 1512 1510 1507 1506 1502 1502 1504 1506
1508 1504 1501 1502 1507 1505 1499 1496 1495 1494 1492 1491 1488 1483 1481 1482 1486 1479 1478 1476 1475 1476 1482 1484 1504 1524 1518 1507 1498 1504 1505 1517 1527 1536 1546 1551 1543 1511 1509 1507 1505 1503 1501 1500 1500
1509 1507 1501 1499 1501 1500 1501 1497 1495 1492 1490 1489 1484 1482 1482 1482 1482 1482 1478 1475 1475 1477 1476 1479 1502 1505 1521 1511 1506 1511 1508 1515 1521 1540 1542 1542 1526 1513 1510 1509 1504 1503 1502 1499 1499
1510 1508 1507 1506 1502 1502 1502 1500 1497 1495 1486 1485 1482 1483 1483 1485 1483 1482 1480 1476 1476 1477 1478 1480 1501 1501 1504 1499 1500 1505 1509 1510 1513 1520 1529 1523 1524 1514 1510 1509 1506 1504 1502 1501 1500
1510 1509 1507 1506 1504 1502 1502 1500 1497 1497 1493 1485 1485 1481 1480 1484 1481 1482 1482 1480 1478 1478 1480 1482 1503 1499 1510 1503 1502 1508 1510 1511 1512 1517 1517 1517 1519 1510 1510 1510 1508 1506 1505 1504 1502
1509 1508 1508 1505 1503 1503 1503 1501 1498 1498 1488 1486 1484 1483 1480 1480 1479 1478 1480 1480 1480 1480 1485 1487 1499 1510 1520 1511 1508 1518 1507 1508 1512 1513 1512 1518 1511 1510 1512 1511 1510 1509 1508 1506 1506
Wind_Speed
14 16 17 18 19 19 20 22 20 20 18 17 18 15 12 11 10 7 2 7 6 6 4 9 9 5 3 3 3 3 4 1 3 1 1 7 4 4 2 4 3 3 8 13 27
14 16 17 18 19 20 19 22 20 20 18 17 17 14 12 9 7 4 7 7 5 5 7 10 7 3 3 4 4 4 4 7 5 3 4 9 7 8 1 3 2 3 5 23 25
16 16 18 19 19 20 20 22 21 20 17 17 16 13 9 7 2 4 4 6 4 8 10 9 2 2 2 2 4 3 4 5 4 9 6 9 7 6 6 3 12 11 20 29 27
18 18 19 20 20 19 21 21 22 20 18 16 13 10 7 3 3 2 3 5 6 10 9 5 2 2 3 1 1 2 7 6 1 4 7 8 8 5 11 8 9 11 20 27 27
17 19 19 20 20 20 21 20 21 21 18 14 11 8 4 2 3 3 1 3 8 12 7 4 5 2 3 2 2 2 3 2 1 8 12 10 6 4 6 5 9 18 21 23 23
18 19 19 21 21 21 21 19 20 20 16 12 9 8 3 2 1 3 1 4 11 12 6 5 4 3 2 1 2 3 7 7 4 7 13 7 4 8 11 9 13 22 23 18 17
19 21 21 22 22 22 21 20 20 18 15 10 8 7 6 1 1 3 3 9 14 7 4 5 5 5 2 3 2 5 5 1 4 7 5 11 3 1 7 17 20 25 23 15 12
20 21 22 22 23 23 21 21 18 15 11 9 7 6 5 4 3 2 11 14 11 5 0 3 6 3 2 2 5 4 5 4 4 4 4 8 3 8 12 17 21 27 25 21 14
22 22 22 22 24 23 21 19 15 10 6 7 5 3 5 2 4 6 10 9 4 2 3 2 3 1 0 4 4 6 3 3 7 5 1 4 1 1 6 10 16 24 24 20 14
23 23 23 22 24 22 20 15 10 6 4 6 4 3 4 2 2 7 7 5 2 4 3 2 1 3 3 4 3 2 2 0 1 4 7 5 2 2 3 10 14 19 22 18 13
23 24 23 22 23 20 13 8 8 2 12 12 13 12 11 2 2 6 7 4 0 2 2 3 3 6 6 5 5 4 3 3 3 2 6 4 4 3 2 7 13 19 26 25 19
22 25 24 22 22 11 9 6 7 11 12 18 17 19 17 11 2 7 9 5 4 2 2 5 4 2 5 6 6 5 4 5 3 2 6 2 4 4 3 6 9 16 24 29 27
23 25 24 21 17 7 10 6 16 18 5 11 10 12 9 10 5 10 11 8 4 4 5 5 4 2 6 3 1 3 6 5 7 6 8 7 6 4 4 7 7 11 17 19 18
23 24 26 22 10 17 3 13 19 5 3 6 5 6 10 7 2 11 15 7 1 6 5 5 4 1 5 3 5 1 5 6 9 4 5 2 3 6 5 7 7 17 17 12 8
22 23 23 22 22 17 10 13 10 1 4 2 3 4 12 10 6 8 17 14 5 4 4 5 2 4 3 4 6 3 5 5 4 5 4 1 3 4 3 7 8 19 19 14 9
22 23 25 24 21 8 12 10 0 4 5 4 3 4 4 4 2 5 6 6 1 2 1 6 3 3 5 4 2 8 7 9 6 4 2 2 4 3 6 9 8 15 18 17 13
24 23 25 23 21 15 10 7 3 3 6 7 3 3 3 3 2 4 5 3 4 3 4 5 2 2 3 5 3 6 7 3 3 4 4 0 2 7 5 6 15 19 22 18 15
26 26 23 19 14 10 5 3 2 3 5 4 3 1 7 5 3 3 5 5 1 4 2 2 4 1 2 3 7 3 6 6 5 3 3 4 3 3 5 7 11 17 21 19 19
28 27 20 9 7 7 6 2 5 3 4 7 9 2 2 3 2 3 6 7 8 8 6 4 3 3 2 3 4 4 3 5 7 3 2 2 5 5 3 4 8 12 20 24 22
27 28 8 15 5 11 3 4 3 2 6 4 4 3 3 3 4 5 4 4 7 10 5 3 2 2 1 4 10 4 5 4 3 4 3 4 3 4 2 7 7 10 24 26 22
20 13 11 5 8 4 3 4 4 5 9 4 3 4 4 1 5 4 4 4 6 5 7 5 3 2 2 2 5 2 3 7 5 4 5 1 5 6 5 5 8 14 18 25 27
8 4 1 4 2 1 3 4 1 2 8 6 3 6 4 2 2 4 8 4 5 11 8 4 4 3 1 6 1 3 4 4 5 3 2 4 5 2 3 9 8 14 14 16 23
10 6 2 4 1 2 4 2 3 3 3 3 3 4 0 2 2 3 3 1 3 8 9 7 0 3 6 6 3 6 3 5 5 3 4 5 5 2 6 6 5 11 11 10 15
5 3 2 1 2 1 3 3 3 6 7 7 5 4 2 2 1 2 1 2 2 3 8 9 4 7 7 7 5 5 3 4 5 4 4 5 5 6 7 7 12 10 11 12 14
2 1 2 3 3 3 1 3 3 4 3 3 3 4 3 3 2 2 3 1 3 2 4 4 5 3 4 3 3 3 5 4 2 4 5 4 5 7 5 5 9 7 4 3 2
2 3 2 4 6 3 3 2 2 5 3 4 3 8 2 4 4 3 1 3 1 5 3 3 2 2 5 5 4 4 6 4 2 3 3 2 6 0 4 4 7 8 6 8 8
2 3 3 3 5 2 1 3 3 5 7 13 8 2 3 2 3 2 2 2 3 2 2 4 6 3 3 2 4 4 3 4 3 0 3 2 6 0 4 5 6 9 9 10 11
Wind_Direction
346 344 344 340 338 345 341 336 339 338 336 339 334 326 323 327 312 313 101 137 139 151 129 143 145 148 138 166 146 120 65 243 239 215 112 170 141 150 82 169 135 158 189 168 161
347 343 340 338 340 342 338 334 339 337 334 336 336 330 332 334 332 67 134 145 146 153 139 140 145 148 164 151 150 100 106 212 212 216 191 179 169 136 77 204 230 152 156 170 169
342 342 340 337 339 339 336 334 337 337 333 332 334 332 334 339 97 68 128 178 181 154 135 134 135 141 128 155 175 157 187 203 249 241 192 172 120 133 154 257 229 180 165 176 178
336 341 339 336 336 334 332 332 334 337 332 329 331 329 326 332 122 51 92 180 192 159 138 116 80 118 89 62 96 19 254 235 145 142 129 124 143 159 187 255 230 213 189 188 184
336 335 335 332 333 331 328 329 331 332 329 325 329 329 328 296 78 23 72 165 176 153 141 86 67 96 92 281 356 157 277 326 106 106 136 146 147 157 197 253 217 203 201 196 194
336 332 334 332 331 328 325 326 326 325 323 319 325 324 305 276 61 358 132 150 154 146 124 68 36 58 114 274 125 280 284 283 80 160 149 114 125 165 209 206 191 194 207 198 203
335 331 335 333 329 326 323 323 319 319 316 307 319 316 265 204 206 0 156 142 146 144 99 56 24 10 321 297 312 309 326 127 40 132 130 120 76 285 233 186 191 194 204 192 199
332 331 333 332 328 323 325 322 319 314 310 299 317 307 249 199 212 95 132 132 143 158 73 51 350 351 216 295 18 21 55 45 325 355 110 178 257 344 172 188 193 199 212 212 213
330 331 332 334 328 323 327 324 324 315 303 315 310 296 260 239 213 169 152 130 126 59 349 315 340 30 6 86 15 9 102 50 337 49 52 55 227 89 201 206 208 208 215 220 234
329 330 332 336 328 329 337 330 326 333 272 316 269 287 242 49 197 179 174 184 120 18 103 92 82 57 37 75 176 77 40 86 238 314 42 67 71 77 218 227 229 222 227 220 233
330 328 334 337 329 337 358 11 348 335 316 267 272 272 275 294 174 206 197 200 358 42 67 25 73 222 212 164 155 138 192 201 265 126 81 20 90 19 40 239 250 248 246 244 249
332 328 334 337 329 346 7 66 35 336 301 298 265 255 254 265 231 203 196 159 131 169 83 18 235 158 139 171 178 166 176 173 57 54 85 70 32 356 324 243 232 254 258 260 264
334 332 334 336 332 359 357 21 342 330 259 290 244 240 232 208 208 200 192 174 131 158 188 180 238 61 143 229 291 167 161 176 146 100 42 102 354 322 301 305 282 261 269 266 266
333 334 336 336 335 343 72 337 333 324 24 278 234 226 183 174 230 201 198 170 180 192 181 220 268 272 143 211 135 239 171 139 130 122 164 206 237 269 246 280 269 254 260 250 235
331 332 332 332 325 325 310 328 335 91 348 252 221 171 173 165 145 182 199 206 185 183 101 257 269 48 345 204 165 182 96 112 108 92 100 344 82 273 110 255 235 237 241 219 201
328 330 326 325 322 321 326 325 348 37 251 334 150 144 131 179 128 115 160 200 219 175 344 241 259 229 209 77 130 160 68 38 47 80 60 250 146 248 184 205 203 227 223 216 207
326 328 322 318 312 306 319 331 38 194 332 325 323 154 165 150 182 126 137 173 167 93 4 331 288 278 154 88 75 75 69 16 14 19 207 240 59 244 247 224 183 204 208 207 202
324 326 323 317 300 278 287 51 201 281 273 321 311 282 171 156 212 151 120 168 220 90 101 114 345 147 172 180 164 97 143 150 177 195 243 16 239 263 254 212 188 211 210 205 210
323 327 330 335 261 220 182 125 217 222 313 322 323 100 236 197 143 151 177 188 193 168 170 146 276 325 57 125 110 180 72 150 102 21 86 253 292 341 54 135 186 199 213 213 214
327 328 340 329 203 166 103 209 247 263 314 358 343 3 210 183 159 146 197 204 193 191 155 203 126 4 116 83 43 112 148 75 19 134 194 308 275 242 230 222 196 207 215 219 222
326 326 355 95 129 166 156 231 276 291 3 345 318 295 299 107 179 180 217 261 180 193 145 148 111 272 35 35 176 60 65 57 110 111 144 128 280 220 255 276 210 241 234 226 226
316 339 339 33 33 10 183 206 254 297 309 267 232 240 240 275 227 208 215 244 152 148 161 183 137 115 152 315 17 110 128 120 115 210 74 133 259 314 289 304 278 278 276 254 241
318 283 292 243 147 286 281 311 314 292 275 291 272 242 319 308 308 207 188 123 224 155 164 180 239 77 360 4 6 72 90 109 109 94 184 136 257 247 336 334 319 298 290 282 274
313 348 322 133 97 100 11 255 276 275 262 237 265 268 283 311 33 299 55 5 104 141 132 121 96 155 179 199 146 117 85 78 102 106 166 225 290 310 325 333 328 326 298 289 284
297 286 356 318 1 4 219 306 322 310 271 282 303 227 253 229 352 0 322 24 70 144 67 106 106 105 41 88 83 119 139 151 131 164 148 228 208 273 297 309 317 332 344 335 330
296 342 346 279 304 302 344 51 336 318 267 273 202 302 227 205 199 204 265 24 345 8 75 19 121 111 34 26 80 126 148 176 189 138 291 338 279 207 7 11 29 36 52 62 71
257 295 322 322 341 84 277 300 264 349 265 254 285 252 198 207 144 101 100 23 7 33 90 71 124 101 172 347 63 359 223 167 116 35 177 228 240 54 42 37 26 40 51 63 70